Location: Belvedere Heights
(33.9836°N, 117.3109°W)
Time: 07:30:23
(UTC+00:00)

Cosmos 1939 Rocket - Pass Details

Date: 21 March 2023
Orbit: 523 x 573 km, 97.4° (Epoch: 01 June)

Event Time Altitude Azimuth Distance (km) Brightness Sun altitude
Rises 12:35:07 0° 19° (NNE) 2,751 6.8 -16.6°
Reaches altitude 10° 12:37:20 10° 27° (NNE) 1,860 6.0 -16.2°
Maximum altitude 12:41:11 42° 99° (E) 810 4.2 -15.4°
Drops below altitude 10° 12:45:02 10° 171° (S) 1,869 5.5 -14.6°
Sets 12:47:16 0° 178° (S) 2,767 6.3 -14.1°
